QPF
0.11 0.15 0.17 0.19 0.19 0.19 0.20 0.21 0.20 0.19 0.14 0.09 0.06 0.05 0.05 0.05 0.04 0.03 0.03 0.01 0.00 0.00 0.00 0.00 0.00 0.01 0.02 0.04 0.08 0.10 0.12 0.12 0.11 0.09 0.06 0.03 0.02 0.01
0.15 0.20 0.22 0.24 0.24 0.24 0.24 0.23 0.22 0.20 0.16 0.09 0.06 0.05 0.05 0.05 0.05 0.04 0.03 0.02 0.00 0.00 0.00 0.00 0.00 0.01 0.03 0.05 0.07 0.08 0.07 0.07 0.07 0.06 0.03 0.01 0.01 0.01
0.10 0.14 0.19 0.23 0.24 0.25 0.24 0.22 0.21 0.18 0.13 0.08 0.05 0.05 0.05 0.06 0.06 0.06 0.04 0.02 0.01 0.00 0.00 0.01 0.02 0.03 0.04 0.05 0.06 0.05 0.04 0.04 0.03 0.02 0.01 0.00 0.00 0.00
0.06 0.09 0.12 0.15 0.16 0.16 0.16 0.17 0.16 0.15 0.11 0.08 0.05 0.04 0.05 0.07 0.10 0.10 0.07 0.03 0.02 0.01 0.01 0.01 0.01 0.03 0.04 0.05 0.04 0.03 0.02 0.02 0.01 0.01 0.01 0.00 0.00 0.00
0.02 0.04 0.05 0.06 0.07 0.06 0.05 0.05 0.06 0.06 0.06 0.05 0.05 0.04 0.05 0.07 0.11 0.11 0.09 0.06 0.03 0.01 0.01 0.01 0.01 0.01 0.02 0.03 0.03 0.02 0.01 0.01 0.00 0.00 0.00 0.00 0.00 0.00
0.01 0.01 0.01 0.02 0.02 0.01 0.01 0.01 0.02 0.03 0.04 0.04 0.04 0.04 0.07 0.09 0.13 0.14 0.12 0.08 0.05 0.02 0.02 0.01 0.01 0.00 0.00 0.00 0.01 0.01 0.00 0.00 0.00 0.00 0.00 0.00 0.00 0.00
0.00 0.00 0.00 0.00 0.00 0.00 0.00 0.00 0.00 0.01 0.01 0.02 0.02 0.03 0.05 0.08 0.12 0.15 0.15 0.13 0.08 0.05 0.03 0.02 0.01 0.00 0.00 0.00 0.00 0.00 0.00 0.00 0.00 0.00 0.00 0.00 0.00 0.00
0.00 0.00 0.00 0.00 0.00 0.00 0.00 0.00 0.00 0.00 0.00 0.00 0.01 0.02 0.02 0.04 0.08 0.12 0.17 0.17 0.15 0.10 0.06 0.04 0.02 0.02 0.02 0.01 0.01 0.00 0.00 0.00 0.00 0.00 0.00 0.00 0.00 0.00
0.00 0.00 0.00 0.00 0.00 0.00 0.00 0.00 0.00 0.00 0.00 0.00 0.00 0.01 0.02 0.04 0.08 0.15 0.21 0.25 0.31 0.32 0.23 0.13 0.07 0.04 0.03 0.02 0.02 0.02 0.01 0.01 0.01 0.00 0.00 0.00 0.00 0.01
0.00 0.00 0.00 0.00 0.00 0.00 0.00 0.00 0.00 0.00 0.00 0.00 0.00 0.00 0.01 0.03 0.07 0.13 0.22 0.30 0.36 0.38 0.36 0.31 0.20 0.11 0.06 0.04 0.04 0.03 0.02 0.02 0.01 0.01 0.01 0.01 0.01 0.01
0.00 0.00 0.00 0.00 0.00 0.00 0.00 0.00 0.00 0.00 0.00 0.00 0.00 0.00 0.00 0.01 0.02 0.05 0.11 0.20 0.31 0.39 0.37 0.30 0.24 0.16 0.10 0.06 0.05 0.04 0.03 0.02 0.02 0.01 0.01 0.01 0.01 0.01
0.00 0.00 0.00 0.00 0.00 0.00 0.00 0.00 0.00 0.00 0.00 0.00 0.00 0.00 0.00 0.00 0.00 0.01 0.02 0.05 0.10 0.19 0.27 0.28 0.22 0.16 0.12 0.08 0.06 0.04 0.04 0.03 0.02 0.01 0.01 0.01 0.01 0.01
0.00 0.00 0.00 0.00 0.00 0.00 0.00 0.00 0.00 0.00 0.00 0.00 0.00 0.00 0.00 0.00 0.00 0.00 0.00 0.00 0.01 0.03 0.05 0.09 0.12 0.12 0.12 0.11 0.08 0.06 0.05 0.05 0.05 0.04 0.04 0.03 0.02 0.02
0.00 0.00 0.00 0.00 0.00 0.00 0.00 0.00 0.00 0.00 0.00 0.00 0.00 0.00 0.00 0.00 0.00 0.00 0.00 0.00 0.00 0.00 0.01 0.01 0.03 0.03 0.03 0.04 0.06 0.06 0.05 0.06 0.08 0.09 0.09 0.09 0.07 0.06
0.00 0.00 0.00 0.00 0.00 0.00 0.00 0.00 0.00 0.00 0.00 0.00 0.00 0.00 0.00 0.00 0.00 0.00 0.00 0.00 0.00 0.00 0.00 0.00 0.01 0.01 0.01 0.02 0.03 0.03 0.04 0.07 0.11 0.15 0.16 0.16 0.15 0.14
0.00 0.00 0.00 0.00 0.00 0.00 0.00 0.00 0.00 0.00 0.00 0.00 0.00 0.00 0.00 0.00 0.00 0.00 0.00 0.00 0.00 0.00 0.00 0.00 0.00 0.00 0.01 0.02 0.03 0.03 0.04 0.06 0.09 0.16 0.23 0.26 0.28 0.27
0.00 0.00 0.00 0.00 0.00 0.00 0.00 0.00 0.00 0.00 0.00 0.00 0.00 0.00 0.00 0.00 0.00 0.00 0.00 0.00 0.00 0.00 0.01 0.01 0.00 0.00 0.00 0.02 0.04 0.05 0.06 0.07 0.08 0.09 0.11 0.19 0.25 0.25
0.00 0.00 0.00 0.00 0.00 0.00 0.00 0.00 0.00 0.00 0.00 0.00 0.00 0.01 0.01 0.01 0.01 0.00 0.00 0.00 0.00 0.01 0.01 0.01 0.01 0.01 0.01 0.01 0.02 0.04 0.06 0.08 0.09 0.09 0.09 0.11 0.11 0.09
0.00 0.00 0.00 0.00 0.00 0.00 0.00 0.00 0.00 0.00 0.00 0.00 0.00 0.00 0.00 0.00 0.00 0.00 0.00 0.00 0.01 0.01 0.01 0.02 0.03 0.04 0.04 0.03 0.03 0.03 0.04 0.05 0.07 0.07 0.07 0.07 0.07 0.05
0.00 0.00 0.00 0.00 0.00 0.00 0.00 0.00 0.00 0.00 0.00 0.00 0.00 0.00 0.00 0.00 0.00 0.00 0.00 0.00 0.01 0.01 0.02 0.02 0.03 0.06 0.07 0.07 0.06 0.06 0.04 0.03 0.03 0.04 0.04 0.03 0.04 0.03
0.00 0.00 0.00 0.00 0.00 0.00 0.00 0.00 0.00 0.00 0.00 0.00 0.00 0.00 0.00 0.00 0.00 0.00 0.00 0.00 0.00 0.00 0.00 0.01 0.01 0.03 0.06 0.09 0.10 0.09 0.09 0.07 0.05 0.03 0.02 0.02 0.02 0.02
0.00 0.00 0.00 0.00 0.00 0.00 0.00 0.00 0.00 0.00 0.00 0.00 0.00 0.00 0.00 0.00 0.00 0.00 0.00 0.00 0.00 0.00 0.00 0.00 0.00 0.01 0.03 0.07 0.10 0.12 0.12 0.11 0.10 0.08 0.05 0.03 0.01 0.01
0.00 0.00 0.00 0.00 0.00 0.00 0.00 0.00 0.00 0.00 0.00 0.00 0.00 0.00 0.00 0.00 0.00 0.00 0.00 0.00 0.00 0.00 0.00 0.00 0.00 0.00 0.01 0.02 0.04 0.06 0.08 0.10 0.11 0.11 0.10 0.06 0.03 0.01
MSLP
1011.21 1011.14 1011.11 1011.10 1011.06 1010.99 1010.87 1010.67 1010.41 1010.10 1009.76 1009.42 1009.11 1008.84 1008.63 1008.49 1008.41 1008.37 1008.35 1008.33 1008.28 1008.19 1008.08 1007.95 1007.84 1007.80 1007.87 1008.10 1008.50 1009.09 1009.86 1010.77 1011.78 1012.81 1013.83 1014.76 1015.59 1016.29
1011.31 1011.24 1011.19 1011.14 1011.08 1010.97 1010.81 1010.58 1010.30 1009.98 1009.64 1009.31 1009.00 1008.75 1008.56 1008.43 1008.36 1008.33 1008.32 1008.31 1008.27 1008.21 1008.13 1008.04 1007.99 1007.99 1008.10 1008.35 1008.77 1009.35 1010.08 1010.93 1011.86 1012.81 1013.73 1014.57 1015.32 1015.95
1011.50 1011.43 1011.36 1011.27 1011.16 1011.01 1010.80 1010.54 1010.23 1009.90 1009.56 1009.23 1008.93 1008.69 1008.51 1008.39 1008.32 1008.30 1008.30 1008.30 1008.30 1008.28 1008.26 1008.24 1008.26 1008.33 1008.50 1008.79 1009.21 1009.77 1010.45 1011.22 1012.04 1012.88 1013.68 1014.42 1015.07 1015.62
1011.82 1011.73 1011.63 1011.51 1011.35 1011.15 1010.90 1010.60 1010.27 1009.92 1009.57 1009.24 1008.95 1008.70 1008.52 1008.39 1008.32 1008.29 1008.29 1008.31 1008.35 1008.38 1008.43 1008.50 1008.60 1008.76 1008.99 1009.32 1009.75 1010.28 1010.90 1011.58 1012.28 1012.99 1013.66 1014.28 1014.82 1015.30
1012.26 1012.15 1012.02 1011.86 1011.66 1011.41 1011.12 1010.80 1010.45 1010.08 1009.72 1009.38 1009.07 1008.81 1008.61 1008.45 1008.36 1008.31 1008.31 1008.34 1008.40 1008.49 1008.60 1008.75 1008.94 1009.18 1009.48 1009.85 1010.28 1010.78 1011.32 1011.90 1012.49 1013.07 1013.62 1014.12 1014.57 1014.97
1012.80 1012.67 1012.51 1012.31 1012.08 1011.79 1011.48 1011.13 1010.76 1010.38 1010.01 1009.66 1009.33 1009.04 1008.79 1008.60 1008.46 1008.38 1008.35 1008.38 1008.45 1008.58 1008.75 1008.97 1009.23 1009.53 1009.88 1010.27 1010.70 1011.15 1011.63 1012.11 1012.59 1013.05 1013.49 1013.90 1014.27 1014.61
1013.40 1013.25 1013.06 1012.83 1012.56 1012.26 1011.92 1011.56 1011.18 1010.80 1010.42 1010.04 1009.69 1009.36 1009.08 1008.83 1008.64 1008.50 1008.44 1008.44 1008.51 1008.65 1008.85 1009.11 1009.41 1009.76 1010.13 1010.52 1010.93 1011.33 1011.73 1012.13 1012.51 1012.87 1013.22 1013.55 1013.87 1014.18
1013.99 1013.82 1013.61 1013.36 1013.07 1012.75 1012.40 1012.04 1011.66 1011.28 1010.89 1010.51 1010.13 1009.77 1009.44 1009.14 1008.89 1008.70 1008.58 1008.54 1008.58 1008.71 1008.91 1009.18 1009.50 1009.84 1010.21 1010.58 1010.94 1011.28 1011.61 1011.91 1012.21 1012.50 1012.78 1013.07 1013.35 1013.65
1014.53 1014.34 1014.11 1013.84 1013.54 1013.21 1012.87 1012.51 1012.14 1011.77 1011.39 1011.00 1010.61 1010.23 1009.86 1009.51 1009.21 1008.96 1008.78 1008.69 1008.69 1008.78 1008.96 1009.20 1009.49 1009.80 1010.13 1010.45 1010.74 1011.02 1011.27 1011.50 1011.72 1011.94 1012.18 1012.43 1012.70 1013.00
1014.98 1014.78 1014.53 1014.25 1013.94 1013.62 1013.28 1012.94 1012.59 1012.23 1011.87 1011.49 1011.11 1010.71 1010.32 1009.94 1009.60 1009.30 1009.07 1008.92 1008.87 1008.90 1009.02 1009.20 1009.44 1009.69 1009.95 1010.19 1010.41 1010.60 1010.77 1010.93 1011.09 1011.26 1011.46 1011.69 1011.96 1012.26
1015.34 1015.12 1014.87 1014.58 1014.28 1013.96 1013.63 1013.31 1012.98 1012.66 1012.32 1011.97 1011.60 1011.22 1010.82 1010.43 1010.06 1009.72 1009.45 1009.24 1009.12 1009.09 1009.14 1009.25 1009.40 1009.57 1009.74 1009.90 1010.03 1010.14 1010.23 1010.32 1010.42 1010.55 1010.71 1010.93 1011.19 1011.48
1015.62 1015.40 1015.15 1014.86 1014.56 1014.25 1013.95 1013.64 1013.35 1013.05 1012.75 1012.43 1012.10 1011.74 1011.35 1010.97 1010.58 1010.22 1009.91 1009.66 1009.48 1009.37 1009.34 1009.36 1009.42 1009.50 1009.59 1009.65 1009.70 1009.73 1009.75 1009.78 1009.82 1009.91 1010.04 1010.24 1010.48 1010.76
1015.86 1015.65 1015.40 1015.12 1014.83 1014.53 1014.25 1013.97 1013.71 1013.45 1013.18 1012.91 1012.61 1012.28 1011.92 1011.55 1011.17 1010.80 1010.45 1010.16 1009.92 1009.75 1009.63 1009.57 1009.54 1009.53 1009.53 1009.51 1009.48 1009.45 1009.41 1009.38 1009.38 1009.43 1009.53 1009.69 1009.91 1010.16
1016.08 1015.89 1015.65 1015.39 1015.11 1014.83 1014.57 1014.32 1014.08 1013.86 1013.63 1013.40 1013.14 1012.84 1012.52 1012.17 1011.79 1011.42 1011.05 1010.72 1010.43 1010.20 1010.01 1009.87 1009.76 1009.67 1009.59 1009.50 1009.42 1009.33 1009.24 1009.18 1009.15 1009.16 1009.23 1009.36 1009.53 1009.75
1016.30 1016.13 1015.92 1015.67 1015.41 1015.16 1014.92 1014.69 1014.48 1014.29 1014.10 1013.91 1013.68 1013.43 1013.14 1012.80 1012.44 1012.07 1011.69 1011.32 1010.99 1010.69 1010.44 1010.23 1010.05 1009.90 1009.76 1009.62 1009.49 1009.37 1009.26 1009.17 1009.11 1009.10 1009.14 1009.23 1009.36 1009.53
1016.51 1016.36 1016.18 1015.96 1015.73 1015.50 1015.28 1015.08 1014.90 1014.74 1014.59 1014.42 1014.24 1014.02 1013.75 1013.44 1013.09 1012.71 1012.31 1011.92 1011.55 1011.20 1010.90 1010.63 1010.39 1010.19 1010.00 1009.84 1009.68 1009.54 1009.41 1009.31 1009.24 1009.21 1009.22 1009.28 1009.37 1009.49
1016.67 1016.55 1016.40 1016.22 1016.02 1015.82 1015.63 1015.46 1015.32 1015.19 1015.06 1014.93 1014.77 1014.58 1014.34 1014.04 1013.70 1013.32 1012.91 1012.49 1012.09 1011.70 1011.35 1011.03 1010.75 1010.51 1010.30 1010.11 1009.93 1009.78 1009.65 1009.54 1009.46 1009.41 1009.40 1009.43 1009.48 1009.56
1016.74 1016.67 1016.55 1016.41 1016.25 1016.09 1015.93 1015.80 1015.68 1015.58 1015.49 1015.39 1015.26 1015.09 1014.87 1014.59 1014.26 1013.88 1013.46 1013.03 1012.59 1012.18 1011.79 1011.43 1011.12 1010.85 1010.61 1010.40 1010.21 1010.05 1009.91 1009.79 1009.70 1009.63 1009.60 1009.60 1009.63 1009.68
1016.71 1016.67 1016.60 1016.50 1016.38 1016.26 1016.14 1016.05 1015.97 1015.91 1015.85 1015.78 1015.68 1015.54 1015.34 1015.08 1014.76 1014.38 1013.96 1013.52 1013.07 1012.63 1012.22 1011.84 1011.50 1011.19 1010.93 1010.70 1010.50 1010.32 1010.16 1010.02 1009.91 1009.82 1009.76 1009.73 1009.73 1009.76
1016.54 1016.55 1016.51 1016.46 1016.39 1016.32 1016.25 1016.20 1016.17 1016.15 1016.12 1016.09 1016.02 1015.91 1015.74 1015.50 1015.20 1014.83 1014.42 1013.98 1013.52 1013.07 1012.65 1012.25 1011.89 1011.57 1011.28 1011.03 1010.80 1010.59 1010.41 1010.24 1010.09 1009.97 1009.87 1009.81 1009.77 1009.77
1016.24 1016.29 1016.30 1016.30 1016.28 1016.26 1016.25 1016.25 1016.26 1016.29 1016.31 1016.31 1016.28 1016.20 1016.06 1015.85 1015.57 1015.23 1014.83 1014.41 1013.96 1013.52 1013.09 1012.69 1012.32 1011.99 1011.68 1011.40 1011.14 1010.90 1010.67 1010.45 1010.26 1010.08 1009.94 1009.83 1009.75 1009.72
1015.83 1015.91 1015.98 1016.02 1016.06 1016.10 1016.14 1016.20 1016.26 1016.34 1016.40 1016.44 1016.45 1016.41 1016.30 1016.12 1015.87 1015.56 1015.20 1014.80 1014.38 1013.96 1013.55 1013.16 1012.79 1012.45 1012.13 1011.83 1011.54 1011.26 1010.98 1010.71 1010.45 1010.21 1010.01 1009.84 1009.71 1009.64
1015.30 1015.43 1015.54 1015.65 1015.74 1015.84 1015.95 1016.06 1016.18 1016.30 1016.41 1016.49 1016.54 1016.53 1016.46 1016.31 1016.10 1015.83 1015.51 1015.15 1014.77 1014.38 1014.00 1013.64 1013.29 1012.96 1012.63 1012.32 1012.00 1011.68 1011.36 1011.03 1010.71 1010.41 1010.13 1009.90 1009.71 1009.59
Thickness
5679 5679 5678 5678 5678 5679 5679 5678 5675 5674 5677 5682 5685 5691 5693 5695 5696 5697 5698 5699 5702 5704 5707 5711 5715 5718 5719 5719 5716 5710 5703 5694 5686 5678 5672 5666 5662 5657
5672 5671 5670 5669 5669 5669 5669 5668 5668 5666 5667 5672 5676 5681 5684 5687 5687 5688 5688 5689 5691 5694 5698 5701 5705 5708 5709 5709 5706 5700 5693 5686 5678 5672 5667 5662 5658 5653
5664 5663 5661 5660 5659 5659 5659 5659 5659 5659 5659 5664 5668 5673 5676 5678 5679 5679 5678 5679 5681 5684 5687 5690 5693 5696 5697 5696 5694 5689 5683 5676 5670 5666 5661 5657 5654 5650
5653 5653 5652 5652 5650 5650 5650 5650 5650 5651 5652 5655 5660 5664 5667 5670 5670 5670 5670 5671 5672 5674 5676 5679 5681 5683 5684 5683 5681 5678 5673 5668 5663 5659 5656 5653 5649 5646
5641 5640 5641 5641 5641 5642 5642 5642 5643 5645 5646 5648 5650 5654 5658 5660 5661 5662 5663 5664 5665 5666 5667 5668 5670 5671 5672 5671 5669 5667 5664 5661 5657 5654 5651 5648 5646 5644
5628 5628 5630 5631 5631 5632 5633 5635 5637 5639 5641 5642 5643 5646 5649 5652 5653 5654 5655 5656 5658 5659 5659 5659 5660 5661 5661 5660 5659 5658 5656 5654 5651 5649 5647 5645 5644 5643
5616 5617 5619 5620 5620 5621 5623 5625 5628 5630 5633 5635 5636 5638 5640 5643 5645 5648 5649 5650 5651 5653 5652 5652 5652 5652 5652 5651 5651 5650 5649 5647 5646 5645 5644 5643 5642 5642
5603 5604 5607 5607 5609 5610 5612 5613 5616 5618 5620 5623 5625 5627 5630 5633 5637 5640 5643 5644 5645 5647 5646 5645 5646 5645 5646 5646 5646 5645 5644 5643 5642 5642 5642 5642 5641 5641
5590 5591 5593 5594 5596 5598 5600 5603 5604 5605 5607 5609 5612 5614 5618 5622 5627 5632 5635 5637 5639 5641 5642 5640 5639 5639 5641 5641 5642 5642 5641 5641 5640 5640 5640 5641 5641 5640
5579 5579 5580 5581 5583 5585 5588 5590 5592 5593 5594 5597 5599 5602 5607 5612 5617 5621 5625 5628 5631 5632 5634 5633 5633 5633 5635 5636 5637 5638 5638 5637 5637 5638 5639 5639 5639 5639
5569 5569 5570 5570 5571 5574 5577 5578 5579 5580 5582 5584 5587 5590 5595 5599 5605 5611 5614 5616 5617 5619 5622 5623 5623 5625 5628 5630 5632 5633 5634 5634 5634 5635 5636 5637 5637 5636
5561 5561 5561 5561 5562 5564 5565 5566 5566 5566 5569 5573 5576 5579 5582 5585 5589 5593 5597 5601 5603 5605 5607 5610 5612 5615 5618 5622 5624 5626 5628 5629 5630 5631 5632 5633 5632 5631
5554 5553 5553 5553 5554 5555 5555 5555 5554 5555 5557 5559 5561 5564 5567 5570 5574 5577 5581 5585 5588 5591 5594 5597 5599 5602 5604 5609 5614 5618 5620 5622 5623 5625 5626 5627 5627 5626
5546 5545 5544 5544 5545 5545 5544 5544 5544 5545 5546 5547 5548 5549 5551 5553 5557 5561 5566 5570 5573 5576 5580 5583 5586 5589 5592 5595 5600 5606 5610 5613 5615 5617 5619 5619 5619 5620
5539 5537 5536 5536 5535 5534 5532 5532 5532 5532 5532 5532 5532 5532 5534 5537 5542 5548 5553 5557 5561 5563 5566 5569 5572 5576 5578 5582 5587 5592 5597 5602 5604 5607 5609 5610 5611 5612
5532 5530 5528 5527 5525 5523 5521 5519 5518 5517 5516 5517 5517 5518 5521 5525 5528 5532 5536 5541 5545 5549 5552 5555 5559 5562 5566 5570 5574 5578 5583 5587 5590 5593 5597 5598 5600 5602
5526 5524 5522 5519 5517 5514 5511 5508 5506 5505 5504 5504 5504 5505 5507 5509 5512 5515 5518 5523 5527 5531 5536 5541 5546 5550 5553 5555 5561 5565 5569 5573 5576 5579 5583 5585 5586 5589
5521 5518 5514 5511 5509 5506 5503 5500 5497 5494 5492 5491 5491 5492 5493 5494 5496 5498 5501 5505 5509 5513 5518 5523 5529 5536 5540 5542 5542 5549 5553 5557 5561 5565 5568 5572 5574 5576
5516 5512 5509 5506 5502 5499 5495 5491 5488 5483 5481 5480 5480 5479 5479 5479 5480 5482 5484 5488 5491 5495 5500 5505 5511 5518 5524 5528 5530 5531 5536 5541 5546 5550 5554 5559 5562 5565
5511 5508 5505 5501 5497 5492 5488 5483 5479 5475 5473 5471 5469 5468 5467 5467 5467 5467 5468 5470 5474 5478 5484 5489 5493 5497 5504 5510 5515 5519 5520 5525 5530 5535 5539 5543 5546 5549
5508 5504 5500 5496 5492 5487 5482 5477 5472 5468 5464 5461 5459 5457 5456 5456 5455 5455 5455 5454 5457 5462 5466 5471 5475 5480 5489 5498 5504 5509 5511 5512 5516 5520 5525 5530 5535 5538
5506 5502 5497 5492 5488 5482 5477 5471 5466 5462 5457 5454 5451 5449 5447 5445 5444 5443 5443 5444 5444 5447 5449 5454 5460 5467 5476 5484 5491 5497 5501 5504 5506 5509 5512 5515 5519 5526
5505 5500 5495 5489 5484 5478 5472 5466 5461 5456 5451 5447 5443 5440 5438 5436 5435 5434 5433 5432 5433 5434 5436 5440 5445 5450 5456 5464 5472 5481 5488 5493 5498 5501 5504 5507 5509 5513